Location: West Sayville
(40.7279°N, 73.0976°W)
Time: 08:09:10
(UTC+00:00)

Cosmos 1408 - Pass Details

Date: 29 October 2020
Orbit: 470 x 492 km, 82.6° (Epoch: 02 December)

Event Time Altitude Azimuth Distance (km) Brightness Sun altitude
Rises 22:56:37 0° 360° (N) 2,558 6.2 -12.8°
Reaches altitude 10° 22:58:49 10° 8° (N) 1,677 5.1 -13.2°
Maximum altitude 23:02:17 39° 79° (ENE) 746 3.0 -13.9°
Drops below altitude 10° 23:05:44 10° 149° (SSE) 1,675 5.0 -14.5°
Sets 23:07:56 0° 157° (SSE) 2,554 6.1 -15.0°
